Location: Blangy-Tronville
(49.8790°N, 2.4226°E)
Time: 02:12:46
(UTC+00:00)

UNK - Pass Details

Date: 18 November 2025
Orbit: 655 x 672 km, 98.4° (Epoch: 04 December)

Event Time Altitude Azimuth Distance (km) Brightness Sun altitude
Rises 16:58:50 0° 16° (NNE) 3,035 6.8 -9.0°
Reaches altitude 10° 17:01:06 10° 19° (NNE) 2,116 5.9 -9.4°
Maximum altitude 17:05:42 68° 103° (ESE) 726 3.7 -10.1°
Drops below altitude 10° 17:10:17 10° 187° (S) 2,098 6.6 -10.8°
Sets 17:12:30 0° 189° (S) 3,005 7.5 -11.1°
